Location: Atherton
(17.2661°S, 145.4859°E)
Time: 00:11:11
(UTC+10:00)

Vanguard 1 - Pass Details

Date: 28 June 2025
Orbit: 649 x 3822 km, 34.2° (Epoch: 17 July)

Event Time Altitude Azimuth Distance (km) Brightness Sun altitude
Rises 12:17:49 0° 351° (N) 7,099 15.1 49.5°
Reaches altitude 10° 12:28:01 10° 16° (NNE) 6,654 15.1 49.4°
Maximum altitude 12:36:11 13° 38° (NE) 6,630 14.9 49.3°
Drops below altitude 10° 12:44:29 10° 59° (ENE) 6,896 14.7 49.1°
Sets 12:55:11 0° 83° (E) 7,618 14.6 48.6°
